Total_Precipitation_Accumulation
0.00 0.00 0.01 0.01 0.01 0.01 0.01 0.01 0.03 0.07 0.19 0.21 0.30 0.26 0.18 0.15 0.07 0.06 0.05 0.04 0.02 0.02
0.00 0.00 0.01 0.01 0.01 0.03 0.02 0.02 0.01 0.02 0.10 0.17 0.13 0.24 0.15 0.09 0.04 0.03 0.03 0.04 0.02 0.01
0.00 0.01 0.01 0.01 0.01 0.01 0.02 0.02 0.03 0.01 0.02 0.09 0.15 0.13 0.14 0.10 0.06 0.04 0.02 0.01 0.01 0.00
0.00 0.00 0.01 0.01 0.01 0.01 0.02 0.02 0.03 0.04 0.01 0.04 0.11 0.15 0.14 0.08 0.04 0.04 0.04 0.01 0.01 0.01
0.00 0.00 0.01 0.01 0.01 0.01 0.00 0.01 0.01 0.04 0.03 0.01 0.03 0.07 0.13 0.14 0.09 0.03 0.03 0.05 0.03 0.02
0.01 0.01 0.01 0.01 0.01 0.01 0.00 0.00 0.00 0.02 0.04 0.02 0.01 0.02 0.05 0.06 0.09 0.05 0.02 0.03 0.03 0.01
0.01 0.01 0.01 0.01 0.02 0.02 0.01 0.01 0.00 0.01 0.02 0.02 0.01 0.04 0.04 0.03 0.04 0.08 0.05 0.05 0.07 0.04
0.01 0.01 0.01 0.01 0.01 0.01 0.01 0.01 0.01 0.01 0.01 0.01 0.01 0.01 0.02 0.03 0.06 0.08 0.10 0.10 0.09 0.10
0.02 0.01 0.01 0.01 0.01 0.01 0.01 0.01 0.02 0.02 0.02 0.01 0.01 0.03 0.01 0.00 0.01 0.03 0.05 0.09 0.09 0.03
0.04 0.03 0.02 0.02 0.01 0.02 0.02 0.01 0.01 0.02 0.02 0.02 0.02 0.04 0.01 0.00 0.00 0.00 0.00 0.01 0.01 0.01
0.05 0.07 0.05 0.05 0.07 0.06 0.05 0.04 0.03 0.03 0.02 0.01 0.03 0.04 0.02 0.02 0.01 0.00 0.01 0.02 0.02 0.02
0.04 0.06 0.08 0.06 0.04 0.05 0.08 0.09 0.07 0.05 0.03 0.02 0.03 0.05 0.03 0.03 0.00 0.01 0.03 0.02 0.01 0.01
0.09 0.04 0.02 0.02 0.02 0.01 0.01 0.03 0.06 0.03 0.01 0.01 0.00 0.01 0.00 0.00 0.00 0.00 0.00 0.00 0.00 0.00
0.12 0.11 0.04 0.01 0.01 0.00 0.00 0.00 0.00 0.00 0.00 0.00 0.00 0.00 0.00 0.00 0.00 0.00 0.00 0.00 0.00 0.00